Weather Roundup
Issued by NWS

Home | Current Version | Previous Version | Text Only | Print | Product List | Glossary On
Versions: 1 2 3 4 5 6 7 8 9 10 11 12 13 14 15 16 17 18 19 20 21 22 23 24 25 26 27 28 29 30 31 32 33 34 35 36 37 38 39 40 41 42 43 44 45 46 47 48 49 50
000
NZUS93 KARX 301659
HRRWXR

CURRENT HOURLY OBSERVATIONS ACROSS
MUCH OF THE UPPER MISSISSIPPI VALLEY
NATIONAL WEATHER SERVICE LA CROSSE WI
1200 PM CDT SAT APR 30 2016


...SOUTHEAST MINNESOTA...


CITY           SKY/WX    TMP DP  RH WIND       PRES   REMARKS
ROCHESTER      CLOUDY    46  36  68 E18       30.01F
ROCHESTER/MAYO FAIR      48  33  55 NE15G24   30.02S
WINONA         CLOUDY    52  34  50 E12G20    30.05S
AUSTIN         RAIN      43  37  81 NE16G22   29.98S
ALBERT LEA     NOT AVBL
DODGE CENTER   PTSUNNY   48  36  61 E23       30.00F
PRESTON        LGT RAIN  42  35  75 NE10G18   30.01S
OWATONNA       CLOUDY    48  34  57 NE24G30   30.01S
FARIBAULT      CLOUDY    52  36  54 NE14G23   30.04S
$$

...ELSEWHERE IN MINNESOTA...


CITY           SKY/WX    TMP DP  RH WIND       PRES   REMARKS
MINNEAPOLIS    CLOUDY    53  32  44 E21G29    30.07S
INTNL FALLS    SUNNY     51  27  39 NE13G18   30.30S
DULUTH         MOSUNNY   47  30  51 E25G35    30.23F
RED WING       CLOUDY    54  34  47 E16G24    30.05F
REDWOOD FALLS  CLOUDY    50  36  58 E13G22    30.05R
MANKATO        CLOUDY    52  36  54 E22G29    30.02R
WORTHINGTON    RAIN      42  41  96 NE25      29.93F FOG
FAIRMONT       CLOUDY    45  36  70 NE20      29.96F
$$

...SOUTHWEST WISCONSIN...


CITY           SKY/WX    TMP DP  RH WIND       PRES   REMARKS
LA CROSSE      CLOUDY    50  34  54 E12       30.04F
PRAIRIE DU CHI LGT RAIN  47  40  76 E10       29.98F
BOSCOBEL       LGT RAIN  48  42  80 NE6       30.01F
LONE ROCK      NOT AVBL
PLATTEVILLE    CLOUDY    47  45  91 NE17G25   29.95F
FORT MC COY    CLOUDY    49  36  62 E14       30.07S
MAUSTON-NEW LI CLOUDY    49  37  61 E9G17     30.07S
VIROQUA        CLOUDY    46  36  69 E12G18    30.02S
WIS DELLS      CLOUDY    49  38  66 E14       30.06S
$$

...ELSEWHERE IN WISCONSIN...


CITY           SKY/WX    TMP DP  RH WIND       PRES   REMARKS
MILWAUKEE      CLOUDY    45  38  76 E15       30.07F
MADISON        LGT RAIN  48  42  80 E15       30.02F
GREEN BAY      CLOUDY    51  41  68 NE13      30.15S
EAU CLAIRE     NOT AVBL
BLACK RVR FLS  FAIR      51  32  47 E10G20    30.07S
MEDFORD        CLOUDY    52  34  49 E14       30.11F
WAUSAU         CLOUDY    56  31  38 E13       30.10F
WIS RAPIDS     CLOUDY    52  33  48 E14       30.12S
MARSHFIELD     CLOUDY    52  33  48 E15       30.09F
RICE LAKE      PTSUNNY   55  31  41 NE13G20   30.14F
$$

...NORTHEAST IOWA...


CITY           SKY/WX    TMP DP  RH WIND       PRES   REMARKS
WATERLOO       LGT RAIN  47  43  86 NE26G36   29.86F FOG
DUBUQUE        NOT AVBL
DECORAH        CLOUDY    45  41  87 E13G18    29.96F
MASON CITY     LGT RAIN  45  43  93 E23G31    29.93S
CHARLES CITY   LGT RAIN  45  45 100 E20G28    29.93F
OELWEIN        LGT RAIN  46  45  93 NE22G29   29.90F
$$

...ELSEWHERE IN IOWA...


CITY           SKY/WX    TMP DP  RH WIND       PRES   REMARKS
DES MOINES     LGT RAIN  48  45  89 NE12      29.77S FOG
IOWA CITY      LGT RAIN  49  47  93 E20G28    29.82F FOG
FORT DODGE     CLOUDY    45  39  81 NE18G24   29.83F
MARSHALLTOWN   LGT RAIN  46  44  93 E23G35    29.80F FOG
CEDAR RAPIDS   RAIN      48  48 100 E23G31    29.81F FOG
$$

...NORTHERN ILLINOIS...


CITY           SKY/WX    TMP DP  RH WIND       PRES   REMARKS
CHICAGO-OHARE  LGT RAIN  45  40  82 E15G23    30.00F
CHICAGO-MIDWAY LGT RAIN  47  41  80 E18G25    30.00F
MOLINE         LGT RAIN  50  47  89 E24       29.85R FOG
ROCKFORD       LGT RAIN  49  43  80 E20G28    29.98F
PEORIA         LGT RAIN  54  51  90 E12       29.83F FOG
$$

NOTE: "FAIR" INDICATES FEW OR NO CLOUDS BELOW 12,000 FEET WITH NO
SIGNIFICANT WEATHER AND/OR OBSTRUCTIONS TO VISIBILITY. WIND
SPEEDS ARE IN MILES-PER-HOUR.




USA.gov is the U.S. government's official web portal to all federal, state and local government web resources and services.